Regional Weather Roundup
Issued by NWS

Home | Current Version | Previous Version | Text Only | Print | Product List | Glossary Off
Versions: 1 2 3 4 5 6 7 8 9 10 11 12 13 14 15 16 17 18 19 20 21 22 23 24 25 26 27 28 29 30 31 32 33 34 35 36 37 38 39 40 41 42 43 44 45 46 47 48 49 50

000
ASUS45 KTFX 241019
RWRMT
MONTANA HOURLY WEATHER ROUNDUP
NATIONAL WEATHER SERVICE GREAT FALLS MT
419 AM MDT FRI OCT 24 2014

NOTE: "FAIR" INDICATES FEW OR NO CLOUDS BELOW 12000 FEET WITH NO
SIGNIFICANT WEATHER AND/OR OBSTRUCTIONS TO VISIBILITY.

* THESE STATIONS ARE NOT UNDER NWS QUALITY CONTROL. THEY DO NOT
   REPORT WEATHER SUCH AS PRECIPITATION OR FOG.

MTZ001>007-043-241100-
WEST OF THE DIVIDE
CITY           SKY/WX    TMP DP  RH WIND       PRES   REMARKS
KALISPELL      CLOUDY    46  37  71 S9        30.00R
MISSOULA       CLOUDY    45  43  93 CALM      30.06R
BUTTE          CLOUDY    45  37  74 NE3       30.04R
MULLAN PASS    CLOUDY    34  30  85 VRB7      30.02R WCI  28
* ESSEX        N/A       40  39  96 W2         N/A
* LINCOLN      N/A       42  39  89 SW4G12     N/A
* POLSON       N/A       40  35  82 S2         N/A
* RONAN APT    MOCLDY    45  39  80 N/A        N/A
* SEELEY LAKE  N/A       42  39  89 N2         N/A
* THOMP F APT  CLOUDY    43  34  71 SE7G12     N/A
* YAAK HILL    N/A       43  40  89 N/A        N/A
$$

MTZ008-052>055-241100-
SOUTHWEST MONTANA
CITY           SKY/WX    TMP DP  RH WIND       PRES   REMARKS
BOZEMAN        CLOUDY    52  37  57 NW5       29.99R
DILLON         MOCLDY    45  36  71 SE7       30.03R
W YELLOWSTONE  CLOUDY    45  32  60 SW13G21   30.13S
* THREE FORKS  MOCLDY    52  48  86 NW7        N/A
* BOULDER HILL N/A       46  33  61 S12G18     N/A
* MONIDA PASS  N/A       40  35  82 SE16       N/A   WCI  32
* RAYNOLDS PAS N/A       45  32  60 S9         N/A
* WHITEHALL    N/A       50  35  57 W6G15      N/A
* WISE RIVER   N/A       43  38  83 SW4G10     N/A
$$

MTZ009>010-012-014-046-048-049-054-241100-
EAST SLOPES AND CENTRAL MONTANA
CITY           SKY/WX    TMP DP  RH WIND       PRES   REMARKS
CUT BANK       MOCLDY    45  32  60 W29G39    29.87R
GREAT FALLS    PTCLDY    45  36  71 SW14      29.92R
HELENA         CLOUDY    50  37  61 W7        29.98S
MALMSTROM AFB  PTCLDY    48  36  63 SW17      29.93R
* CONRAD       PTCLDY    48  30  50 SW13G21    N/A
* DEARBORN     N/A       52  36  55 S11G16     N/A
* EAST GLACIER N/A       39  32  76 W15G27     N/A   WCI  31
* MONARCH      N/A       46  28  50 S15        N/A
* PENDROY      N/A       46  27  48 W28G38     N/A
* ROGERS PASS  N/A       39  35  86 SE13G23    N/A   WCI  31
* SAINT MARY   N/A       39  35  86 S6G18      N/A   WCI  35
* SWEET GRASS  N/A       45  32  60 W26G40     N/A
* WHITE SULPH  N/A       44  36  74 E2         N/A
$$

MTZ011-013-016-021-035-040-045-047-050-051-241100-
NORTH CENTRAL MONTANA
CITY           SKY/WX    TMP DP  RH WIND       PRES   REMARKS
HAVRE          CLOUDY    48  39  71 SW20      29.85R
LEWISTOWN      PTCLDY    46  37  71 W7        29.92S
* CHINOOK      CLOUDY    54  39  57 W14       29.84R
* FORT BENTON  PTCLDY    48  36  63 SW5       29.92R
* CHESTER      N/A       41  35  79 S2         N/A
* DENTON       N/A       46  36  68 W6         N/A
* GEYSER       N/A       49  33  54 W20        N/A
* JUDITH GAP   N/A       43  40  89 VRB8       N/A
* LOMA         N/A       52  37  57 SW11       N/A
$$

MTZ017>020-022>027-061-062-241100-
NORTHEAST MONTANA
CITY           SKY/WX    TMP DP  RH WIND       PRES   REMARKS
GLASGOW        MOCLDY    48  39  71 S5        29.82R
GLENDIVE       MOCLDY    39  32  76 S6        29.85S WCI  35
JORDAN         MOCLDY    46  36  68 W5        29.86R
SIDNEY         PTCLDY    39  34  82 S6        29.82F WCI  35
WOLF POINT     MOCLDY    46  39  77 SW8       29.80F
* BEAVER HILL  N/A       51  32  48 S11        N/A
* CIRCLE       N/A       46  37  71 N/A        N/A
* LINDSAY DVD  N/A       58  34  41 SW18       N/A
* NAVAJO       N/A       53  39  59 W16        N/A
$$

MTZ028>042-056>058-241100-
SOUTHCENTRAL AND SOUTHEAST MONTANA
CITY           SKY/WX    TMP DP  RH WIND       PRES   REMARKS
BAKER          CLOUDY    46  32  58 VRB3      29.87S
BILLINGS       MOCLDY    52  30  43 N9        29.92R
LIVINGSTON     CLOUDY    59  34  39 SW24G41   29.95S
MILES CITY     CLOUDY    45  34  65 CALM      29.88R
* LAUREL APT   PTCLDY    46  27  48 N/A        N/A
* ROUNDUP APT  MOCLDY    48  32  54 N/A        N/A
* ALZADA       N/A       43  30  60 W2         N/A
* HYSHAM       N/A       50  26  39 NW1        N/A
* LAME DEER    N/A       59  26  28 W6         N/A
* REED POINT   N/A       38  33  82 N/A        N/A
* ROSCOE HILL  N/A       59  24  26 S22G43     N/A
$$

REGIONAL REPORTS...DAKOTAS
CITY           SKY/WX    TMP DP  RH WIND       PRES   REMARKS
WILLISTON      PTCLDY    45  36  71 SW10      29.80R
DICKINSON      CLOUDY    45  32  60 W5        29.82F
BEACH          N/A       48  32  54 SW12      29.85S
CROSBY         FAIR      52  39  61 SW13      29.75S
TIOGA          CLEAR     39  39 100 W8        29.81S WCI  33
BISMARCK       CLOUDY    39  30  70 CALM      29.82S
GRAND FORKS    CLOUDY    39  36  89 S6        29.74S WCI  35
FARGO          CLOUDY    46  41  83 S8        29.79S
BUFFALO SD     CLOUDY    43  28  56 CALM      29.82S
RAPID CITY     PTCLDY    43  32  65 NW5       29.89F
$$

REGIONAL REPORTS...WYOMING/IDAHO/WASHINGTON
CITY           SKY/WX    TMP DP  RH WIND       PRES   REMARKS
GILLETTE       CLOUDY    55  25  31 SW10      29.95R
SHERIDAN       CLOUDY    43  28  56 CALM      29.93R
CODY           CLOUDY    61  28  29 W3G21     29.99F
YELLOWSTONE LA MOCLDY    43  30  60 VRB5      30.19S
SALMON         CLOUDY    48  41  77 CALM      30.03S
MULLAN PASS    CLOUDY    34  30  85 VRB7      30.02S WCI  28
SAND POINT     CLOUDY    46  45  96 SW5       30.02R
SPOKANE        CLOUDY    45  39  80 S7        30.03R
$$

REGIONAL REPORTS...ALBERTA
CITY           SKY/WX    TMP DP  RH WIND       PRES   REMARKS
CALGARY        FAIR      39  23  53 VRB2      29.75R
LETHBRIDGE     CLEAR     45  30  56 W20       29.82R
MEDICINE HAT   CLEAR     48  32  54 SW22      29.74R
EDMONTON       MOCLDY    43  30  60 W14G22    29.71R
WATERTON GATE  N/A       45  27  49 W13G22     N/A
CARDSTON       N/A       39  32  76 SW7        N/A   WCI  34
MILK RIVER     N/A       46  32  58 W30G37     N/A
$$

REGIONAL REPORTS...SASKATCHEWAN
CITY           SKY/WX    TMP DP  RH WIND       PRES   REMARKS
SWIFT CURRENT  CLEAR     54  34  47 W29G36    29.67R
MOOSE JAW      CLOUDY    55  43  64 W17       29.66R
REGINA         MOCLDY    50  43  77 SW7       29.67S
VAL MARIE      N/A       50  39  66 W18        N/A
ASSINIBOIA     N/A       52  39  61 W17G23     N/A
CORONACH       N/A       52  39  61 SW15       N/A

$$




USA.gov is the U.S. government's official web portal to all federal, state and local government web resources and services.